Regional Weather Roundup
Issued by NWS

Home | Current Version | Previous Version | Text Only | Print | Product List | Glossary On
Versions: 1 2 3 4 5 6 7 8 9 10 11 12 13 14 15 16 17 18 19 20 21 22 23 24 25 26 27
000
ASCA42 TJSJ 261910
RWRPR
PUERTO RICO/U.S. VIRGIN ISLANDS HOURLY WEATHER ROUNDUP
NATIONAL WEATHER SERVICE SAN JUAN PR
300 PM AST SUN MAR 26 2017

PRZ001>002-007>008-010-262000-
PUERTO RICO

CITY           SKY/WX    TMP DP  RH WIND       PRES   REMARKS
SAN JUAN LMM   LGT RAIN  82  75  78 S10G17    29.86S
AGUADILLA      MOSUNNY   84  72  65 W10G16    29.89F
CEIBA          CLOUDY    79  73  83 S14       29.92F
$$

VIZ001>002-262000-
U.S. VIRGIN ISLANDS

CITY           SKY/WX    TMP DP  RH WIND       PRES   REMARKS
CHARLOTTE AMA  CLOUDY    79  73  83 S12       29.89F
CHRISTIANSTED  MOSUNNY   84  73  70 S10       29.91F HX  91
$$

HOURLY WEATHER ROUNDUP FOR THE NEWS MEDIA

CITY           SKY/WX    TMP DP  RH WIND       PRES   REMARKS
ORLANDO        PTSUNNY   83  56  39 N10       30.10F
NEW YORK       CLOUDY    43  36  76 E14       30.43F
NEWARK         CLOUDY    44  34  67 E9        30.42F
CHICAGO        CLOUDY    61  52  72 SW9       29.80F
HARTFORD       CLOUDY    42  28  57 SE12      30.50S
BOSTON         LGT RAIN  37  28  70 E12       30.53F WCI  29
DALLAS         PTSUNNY   82  60  47 S16G28    29.81F
PHILADELPHIA   CLOUDY    45  39  79 E13       30.37F
LOS ANGELES    MOSUNNY   65  54  67 W6        30.07F
WASHINGTON DC  CLOUDY    48  43  82 E12       30.27F



USA.gov is the U.S. government's official web portal to all federal, state and local government web resources and services.